Regional Weather Roundup
Issued by NWS

Home | Current Version | Previous Version | Text Only | Print | Product List | Glossary Off
Versions: 1 2 3 4 5 6 7 8 9 10 11 12 13 14 15 16 17 18 19 20 21 22 23 24 25 26 27 28 29 30 31 32 33 34 35 36 37 38 39 40 41 42 43 44 45 46 47 48 49 50

000
ASUS45 KABQ 281601
RWRNM
WEATHER ROUNDUP FOR NEW MEXICO
NATIONAL WEATHER SERVICE ALBUQUERQUE NM
1000 AM MDT SAT MAR 28 2015

NOTE: "FAIR" MEANS FEW OR NO CLOUDS BELOW 12,000 FEET AGL WITH NO
       SIGNIFICANT WEATHER OR OBSTRUCTIONS TO VISION.

      THIS PRODUCT IS RELEASED AS TWO VERSIONS.  ONE VERSION NEAR
      THE TOP OF THE HOUR CONTAINING PRELIMINARY DATA FROM ALBUQUERQUE
      AND OTHER STATIONS.  A FINAL VERSION WITH ADDITIONAL DATA IS
      ISSUED ABOUT 10 MINUTES AFTER THE HOUR.

NMZ501-503-504-510>518-281700-
NORTHWEST PLATEAU/NORTHCENTRAL MOUNTAINS

CITY           SKY/WX    TMP DP  RH WIND       PRES   REMARKS
FARMINGTON     SUNNY     52  26  36 SE7       30.25S
LOS ALAMOS     SUNNY     53  24  33 CALM      30.33R
SANTA FE       SUNNY     59  22  24 N10       30.29R
TAOS           SUNNY     48  25  40 CALM      30.32F
ANGEL FIRE     FAIR      47  28  48 CALM      30.35S

$$
NMZ402-403-502-505>509-281700-
WESTCENTRAL MOUNTAINS/SOUTHWEST MOUNTAINS

CITY           SKY/WX    TMP DP  RH WIND       PRES   REMARKS
GALLUP         SUNNY     53  20  27 CALM      30.32F
GRANTS         SUNNY     51  19  28 CALM      30.34S

$$
NMZ407-409-411-412-281700-
SOUTHERN DESERTS

CITY           SKY/WX    TMP DP  RH WIND       PRES   REMARKS
LORDSBURG      FAIR      63  23  22 NW6       30.24R
DEMING         SUNNY     64  23  21 SW6       30.23R
LAS CRUCES     SUNNY     67  19  15 NE3       30.23S
ALAMOGORDO     MOSUNNY   64  21  19 S6        30.21S
T OR C         SUNNY     67  16  14 E3        30.24R

$$
NMZ519>523-281700-
CENTRAL VALLEYS/CENTRAL HIGHLANDS

CITY           SKY/WX    TMP DP  RH WIND       PRES   REMARKS
ALBUQUERQUE    SUNNY     57  23  26 W6        30.28R
MORIARTY ARPT  FAIR      62  19  19 N7        30.29S
CLINES CORNERS SUNNY     62  21  20 NW13      30.28R
BELEN          FAIR      62  20  20 CALM      30.28R
SOCORRO        FAIR      62  18  17 CALM      30.26R

$$
NMZ524>526-539-540-281700-
SOUTHCENTRAL MOUNTAINS

CITY           SKY/WX    TMP DP  RH WIND       PRES   REMARKS
RUIDOSO        NOT AVBL

$$
NMZ527>531-281700-
NORTHEAST HIGHLANDS/NORTHEAST PLAINS

CITY           SKY/WX    TMP DP  RH WIND       PRES   REMARKS
LAS VEGAS      SUNNY     63  20  19 N6        30.27R
RATON          SUNNY     57  24  28 CALM      30.22R
CLAYTON        SUNNY     74  27  17 NW9       30.13R

$$
NMZ532>537-281700-
EASTCENTRAL PLAINS

CITY           SKY/WX    TMP DP  RH WIND       PRES   REMARKS
TUCUMCARI      SUNNY     69  27  20 W10       30.11S
CANNON AFB     NOT AVBL
CLOVIS AIRPORT SUNNY     70  34  26 N17       30.10S

$$
NMZ028-029-538-281700-
SOUTHEAST PLAINS

CITY           SKY/WX    TMP DP  RH WIND       PRES   REMARKS
ROSWELL        SUNNY     66  32  28 N3        30.13R
ARTESIA        SUNNY     64  28  25 NE5       30.13S
CARLSBAD       SUNNY     68  31  25 N7        30.10S
HOBBS          SUNNY     73  27  17 W15       30.11R


$$


USA.gov is the U.S. government's official web portal to all federal, state and local government web resources and services.